Location: Alafon
(8.4500°N, 4.2333°E)
Time: 14:37:19
(UTC+00:00)

Vanguard 1 Rocket - Pass Details

Date: 25 July 2021
Orbit: 650 x 4226 km, 34.3° (Epoch: 23 September)

Event Time Altitude Azimuth Distance (km) Brightness Sun altitude
Rises 20:16:12 0° 287° (WNW) 3,033 11.2 -30.5°
Reaches altitude 10° 20:18:21 10° 278° (W) 2,242 10.2 -31.0°
Enters shadow 20:22:18 35° 225° (SW) 1,414 8.4 -31.8°
